Погода в Риге

Погода в Риге : погода сейчас, прогноз погоды и архив. Всё, что Вы хотите узнать о погоде в Риге!

Поиск расширенной информации на нашем сайте:

Другие новости

Новости СМИ2

Главная страница сайта

Новости сайта

03.07.2017

Напоминаем, что на нашем специализированном сайте Метеоцентр.Азия вы можете получить высокодетализированные автоматические прогнозы погоды по пунктам России, СНГ и мира в авиационном формате (включающие направление и скорость ветра, видимость, явления погоды, количество и форму облачности, нижнюю и верхнюю границу облачности).


Погода в Риге - сегодня

Время (UTC), дата Ветер
(°,м/с) 
Видим.   Явления Облачность Т
(°С)
Тd
(°С)
f(%) Тe
(°С)
Pmin
(гПа)
dP
(гПа)
Po
(мм)
O2
(г/м3)
Тmin Tmax R s Состояние
почвы
06 25.05.18 070 (В) н/о    н/о 
+17.9 +9.4 57 +19  1027.1  0.5  770  289  +14         
09 25.05.18 320 (СЗ) н/о    н/о 
+24.1 +11.7 46 +27  1027.1  0.1  770  282           
12 25.05.18 300 (СЗ) н/о    н/о 
+23.2 +13.3 54 +29  1027  -0.2  767  282           
15 25.05.18 320 (СЗ) н/о    н/о 
+23.7 +12.3 49 +28  1026  -0.9  769  282           
18 25.05.18 080 (В) н/о    н/о 
+24.1 +10 41 +25  1026.1  0.1  769  282    +25.1       
21 25.05.18 080 (В) н/о    н/о 
+20.6 +10.6 53 +22  1027.6  1.4  770  286           
00 26.05.18 110 (В) н/о    н/о 
+17.4 +9.2 59 +18  1028.5  0.8  768  289           
03 26.05.18 080 (В) н/о    н/о 
+15.3 +8.5 64 +16  1028.5  771  292           
06 26.05.18 120 (ЮВ) н/о    н/о 
+19.1 +10.6 58 +21  1028.7  0.3  771  288  +15.2         
09 26.05.18 140 (ЮВ) н/о    н/о 
+25.2 +11.7 43 +28  1028.4  -0.2  771  282           
12 26.05.18 130 (ЮВ) н/о    н/о 
+26.3 +11.2 39 +29  1027.3  -1.1  767  280           
15 26.05.18 130 (ЮВ) н/о    н/о 
+25.9 +12.3 43 +30  1025.7  -1.6  769  280           
18 26.05.18 150 (ЮВ) н/о    н/о 
+24.4 +10.6 42 +26  1025.9  0.2  769  282    +26.9       
21 26.05.18 150 (ЮВ) н/о    н/о 
+20.2 +11.3 57 +23  1026.6  0.6  769  286           
00 27.05.18 120 (ЮВ) н/о    н/о 
+18.1 +11.6 66 +23  1026.4  -0.2  767  288           
03 27.05.18 тихо ()   н/о    н/о 
+16.2 +13 81 +21  1026.1  -0.4  769  289           
06 27.05.18 170 (Ю) н/о    н/о 
+21 +12.9 60 +26  1026  769  285  +16         
09 27.05.18 320 (СЗ) н/о    н/о 
+26 +14.4 49 +33  1026.1  0.2  769  279           
12 27.05.18 320 (СЗ) н/о    н/о 
+24.2 +8.9 38 +24  1025.9  -0.2  766  282           
15 27.05.18 330 (СЗ) н/о    н/о 
+22.5 +10.9 48 +24  1025.6  -0.4  769  284           
18 27.05.18 320 (СЗ) н/о    н/о 
+20.5 +12.1 59 +24  1025.4  -0.2  768  285    +26.8       
21 27.05.18 040 (СВ) н/о    н/о 
+18.4 +10.2 59 +20  1026.8  1.4  769  288           
00 28.05.18 060 (СВ) н/о    н/о 
+16.5 +2.8 40 +17  1028.3  1.4  768  291           
03 28.05.18 060 (СВ) н/о    н/о 
+14.7 +3.4 47 +15  1028.6  0.3  771  294           
06 28.05.18 070 (В) н/о    н/о 
+18 +5.2 43 +19  1029.1  0.6  771  290  +14.6         
Время (UTC), дата Ветер
(°,м/с) 
Видим.   Явления Облачность Т
(°С)
Тd
(°С)
f(%) Тe
(°С)
Pmin
(гПа)
dP
(гПа)
Po
(мм)
O2
(г/м3)
Тmin Tmax R s Состояние
почвы

Для получения пояснительной информации подведите курсор к названию столбца.

ПОГОДА в Риге - архив

Всё, что Вы хотите узнать о погоде в Риге - удобно и подробно!

Выберите нужную дату (начиная с 1 января 2015* года) и нажмите кнопку "Найти".
Будут отображены архивные сводки погоды по пункту Рига, начиная с указанной даты.


Отображать данные в формате CSV (для использования в таблицах Excel)


Внимание! Наш архив погоды предназначен исключительно для личного некоммерческого использования в познавательных целях. Если Вам необходимы официальные справки о состоянии погоды (для производственных, юридических, коммерческих и т.п. целей), обращайтесь в органы Росгидромета.

*Примечание: данная дата относится к архиву по метеостанциям СССР (Россия, СНГ, Балтия).
Архив по метеостанциям Зарубежной Европы и Азии (кроме Китая) хранится 10 дней, по другим регионам земного шара (Китай, Африка, Америка, Австралия, Океания) - 1 день.

Рига - район местоположения метеостанции


Название, широта, долгота, высота метеостанции:
Рига 57°ш. 24.1°д. 7 м над ур. моря [Латвия]

Дополнительная информация

В oтличие oт бoльшинства пoгoдных сайтoв мы публикуем пoдрoбную метеoинфoрмацию в детальнoм прoфессиoнальнoм фoрмате.

Характеристики температуры и влажнoсти вoздуха измеряются на высoте 2 м в тени вдали oт зданий и деревьев.
Скoрoсть ветра измеряется на высoте 10 м (на урoвне рoста челoвека скoрoсть ветра ниже в 1.5-2 раза). Если метеoстанция нахoдится в гoрoде или в лесу, тo скoрoсть ветра занижена на 2-4 м/с пo сравнению с oткрытым местoм. Скoрoсть ветра над акватoриями крупных рек и oзёр, а также на вершинах хoлмoв на 2-5 м/с выше, чем в oбычных услoвиях.
Атмoсфернoе давление в разных тoчках местнoсти мoжет значительнo oтличаться oт давления на метеoстанции, в зависимoсти oт услoвий рельефа (при пoдъёме на 10 м давление пoнижается примернo на 1 мм рт.ст.).